Location: Champaign/Urbana Astronomical Society Observatory
(40.0333°N, 88.2833°W)
Time: 06:00:22
(UTC-05:00)

AIST 2D - Pass Details

Date: 24 May 2019
Orbit: 456 x 473 km, 97.2° (Epoch: 18 June)

Event Time Altitude Azimuth Distance (km) Brightness Sun altitude
Rises 23:27:19 0° 18° (NNE) 2,504 ? -26.1°
Reaches altitude 10° 23:29:26 10° 24° (NNE) 1,620 ? -26.2°
Enters shadow 23:30:43 20° 33° (NNE) 1,121 ? -26.3°
